Weather Roundup
Issued by NWS

Home | Current Version | Previous Version | Graphics & Text | Print | Product List | Glossary Off
Versions: 1 2 3 4 5 6 7 8 9 10 11 12 13 14 15 16 17 18 19 20 21 22 23 24 25 26 27 28 29 30 31 32 33 34 35 36 37 38 39 40 41 42 43 44 45 46 47 48 49 50

000
NZUS93 KARX 270110
HRRWXR

CURRENT HOURLY OBSERVATIONS ACROSS
MUCH OF THE UPPER MISSISSIPPI VALLEY
NATIONAL WEATHER SERVICE LA CROSSE WI
800 PM CDT TUE JUL 26 2016


...SOUTHEAST MINNESOTA...


CITY           SKY/WX    TMP DP  RH WIND       PRES   REMARKS
ROCHESTER      CLEAR     78  71  79 SW6       30.02F
ROCHESTER/MAYO FAIR      82  67  62 S7        30.01F
WINONA         CLEAR     81  68  65 CALM      29.97F
AUSTIN         CLEAR     81  70  69 S3        30.01F
ALBERT LEA     CLEAR     81  68  65 CALM      30.01F
DODGE CENTER   CLEAR     81  70  69 SW6       30.01F
PRESTON        CLEAR     79  68  68 SW3       30.03F
OWATONNA       CLEAR     79  70  73 SW3       30.00F
FARIBAULT      CLEAR     81  70  69 S3        29.99F
$$

...ELSEWHERE IN MINNESOTA...


CITY           SKY/WX    TMP DP  RH WIND       PRES   REMARKS
MINNEAPOLIS    CLOUDY    86  66  51 SW12      29.95F
INTNL FALLS    CLEAR     76  56  49 N8        29.96F
DULUTH         CLOUDY    77  69  76 NW3       29.98R
RED WING       CLEAR     84  66  54 W6        29.95F
REDWOOD FALLS  CLOUDY    82  69  64 S8        29.94F
MANKATO        PTCLDY    81  66  61 S6        29.98F
WORTHINGTON    MOCLDY    79  69  71 S9        29.99F
FAIRMONT       CLEAR     79  66  65 S7        29.99F
$$

...SOUTHWEST WISCONSIN...


CITY           SKY/WX    TMP DP  RH WIND       PRES   REMARKS
LA CROSSE      CLEAR     84  68  58 S8        29.97F
PRAIRIE DU CHI CLEAR     82  64  55 CALM      30.00F
BOSCOBEL       CLEAR     82  69  64 CALM      30.01S
LONE ROCK      CLEAR     79  70  74 S3        30.01S
PLATTEVILLE    CLEAR     79  70  74 CALM      30.04S
FORT MC COY    CLEAR     80  68  66 SW3       29.99F
CAMP DOUGLAS   PTCLDY    81  68  65 SW6       29.99F
MAUSTON-NEW LI CLEAR     81  71  71 SW3       29.99F
VIROQUA        FAIR      79  69  70 CALM      30.03S
WIS DELLS      CLEAR     78  67  66 SW5       30.00F
$$

...ELSEWHERE IN WISCONSIN...


CITY           SKY/WX    TMP DP  RH WIND       PRES   REMARKS
MILWAUKEE      PTCLDY    80  61  52 S8        30.00F
MADISON        PTCLDY    81  65  58 SW3       30.01S
GREEN BAY      CLEAR     80  70  71 SW6       29.96S
EAU CLAIRE     CLEAR     82  68  62 SW5       29.96S
BLACK RVR FLS  FAIR      82  67  60 SW3       29.97F
MEDFORD        CLEAR     77  67  69 SW6       29.99S
WAUSAU         CLEAR     80  66  62 SW8       29.96F
WIS RAPIDS     CLEAR     82  65  56 SW6       29.99F
MARSHFIELD     CLEAR     79  67  66 SW7       29.99S
RICE LAKE      CLEAR     79  67  66 SW5       29.98S
$$

...NORTHEAST IOWA...


CITY           SKY/WX    TMP DP  RH WIND       PRES   REMARKS
WATERLOO       CLEAR     80  66  62 S6        30.01S
DUBUQUE        CLEAR     80  65  59 SE3       30.04S
DECORAH        CLEAR     79  70  73 CALM      30.01F
MASON CITY     CLEAR     79  69  71 SE7       30.03F
CHARLES CITY   CLEAR     79  73  83 CALM      30.03S
OELWEIN        CLEAR     79  72  78 S6        30.03F
$$

...ELSEWHERE IN IOWA...


CITY           SKY/WX    TMP DP  RH WIND       PRES   REMARKS
DES MOINES     PTCLDY    82  66  58 SE8       30.01S
IOWA CITY      PTCLDY    81  66  60 NE5       30.03S
FORT DODGE     CLEAR     79  66  65 SE5       30.02S
MARSHALLTOWN   CLEAR     79  69  71 E6        30.02F
CEDAR RAPIDS   CLEAR     78  69  73 E6        30.02S
$$

...NORTHERN ILLINOIS...


CITY           SKY/WX    TMP DP  RH WIND       PRES   REMARKS
CHICAGO-OHARE  PTCLDY    82  62  50 E8        30.01R
CHICAGO-MIDWAY PTCLDY    83  62  49 E7        30.01R
MOLINE         CLEAR     81  68  64 SE3       30.01R
ROCKFORD       PTCLDY    82  64  54 NW5       30.02S
PEORIA         MOCLDY    82  70  66 CALM      30.00S
$$

NOTE: "FAIR" INDICATES FEW OR NO CLOUDS BELOW 12,000 FEET WITH NO
SIGNIFICANT WEATHER AND/OR OBSTRUCTIONS TO VISIBILITY. WIND
SPEEDS ARE IN MILES-PER-HOUR.




USA.gov is the U.S. government's official web portal to all federal, state and local government web resources and services.